Theta_e
263 263 263 263 263 263 263 263 262 263 262 262 262 262 262 262 262 261 261 261 261 262 261 261 260 261 261 262 261 261 261 261 262 262 262 262 262 261 262 261 260 258 258 262 264 264 264 266 267 266 267 266 267 267 268 270 269 269 269 270 270 271 274
263 263 263 263 263 262 262 262 262 262 262 261 261 261 261 261 261 261 260 261 260 260 261 260 260 260 260 261 260 260 260 260 261 260 260 261 261 261 261 262 261 259 259 258 262 262 264 264 265 263 266 265 265 266 267 267 268 269 269 270 270 270 271
263 263 263 262 262 262 262 262 262 262 261 261 260 260 260 261 260 260 260 259 260 260 260 259 259 259 260 260 259 259 260 260 260 260 260 260 260 260 261 261 262 260 258 258 259 262 262 262 264 263 264 265 266 266 267 267 267 268 269 269 269 269 270
263 263 262 262 262 261 261 261 261 261 261 261 260 260 260 260 260 260 259 259 259 259 259 259 258 259 259 259 258 259 259 259 259 259 259 259 260 260 260 260 261 261 259 259 258 260 260 262 262 263 264 265 266 266 266 266 266 267 267 267 268 268 268
263 262 262 261 261 261 261 261 261 260 260 260 260 260 259 259 259 259 259 259 259 259 259 258 258 258 258 258 258 258 258 259 258 259 259 259 259 260 260 260 260 260 261 259 259 259 261 262 262 263 264 264 264 264 265 265 265 265 265 266 267 268 269
262 261 261 261 261 261 260 260 260 260 260 260 259 259 259 259 258 258 258 258 258 258 258 258 258 258 258 258 257 257 257 257 257 258 257 258 258 259 259 259 259 260 259 259 259 259 259 261 260 261 262 263 264 263 263 263 264 265 265 265 265 266 268
261 261 261 260 260 260 260 260 259 259 259 258 258 258 258 258 258 258 258 258 258 258 258 258 258 258 258 257 257 257 256 257 257 257 257 257 257 258 257 257 258 258 258 258 258 258 259 259 260 261 260 262 264 263 263 262 262 262 264 265 265 265 267
260 260 260 260 260 260 259 259 259 258 258 258 257 257 257 257 257 257 257 257 258 258 258 258 258 258 258 257 257 257 257 257 256 257 256 257 257 257 257 256 257 257 258 258 257 257 257 259 259 260 261 262 262 261 261 262 262 260 261 262 264 265 265
260 259 259 259 259 259 259 258 257 257 257 256 256 256 256 257 257 257 257 257 257 258 258 258 258 258 257 258 259 260 260 260 259 257 256 257 257 257 257 257 257 257 257 257 257 257 258 258 258 259 259 259 259 259 259 262 263 261 262 263 263 264 266
259 258 257 257 257 257 257 256 256 258 260 264 260 260 259 259 259 259 259 259 259 259 259 259 259 259 260 260 260 261 261 261 261 261 260 259 258 257 257 257 257 257 257 257 257 257 257 257 257 258 259 259 260 261 262 262 261 261 262 262 262 263 265
257 257 257 256 256 255 255 256 256 260 265 261 260 260 260 259 259 260 259 259 259 259 259 259 259 259 260 261 261 261 262 262 262 263 263 263 263 263 260 259 258 257 258 257 257 257 257 257 257 258 259 260 260 261 261 261 261 261 261 260 259 258 262
256 256 256 256 256 255 255 255 258 264 263 263 264 261 259 260 259 259 259 259 259 259 258 258 258 258 258 259 259 259 260 261 262 263 263 263 264 264 265 266 262 260 258 258 257 257 258 258 257 258 259 259 260 260 260 261 261 261 261 260 260 260 260
257 256 256 255 255 255 255 255 260 264 262 262 264 264 262 259 259 259 259 258 258 258 258 258 258 257 258 258 260 260 260 259 259 261 262 262 262 263 264 266 267 267 263 262 260 259 259 259 259 258 259 260 260 261 260 261 260 261 261 261 261 261 262
256 256 255 255 254 254 254 254 257 263 264 261 260 261 262 259 259 259 258 257 257 257 257 257 257 256 257 257 258 258 258 258 258 258 258 259 259 259 261 263 265 265 265 265 263 262 261 262 262 260 261 262 263 261 260 260 260 261 261 261 261 263 263
255 255 255 254 254 254 254 254 260 264 262 258 262 263 262 259 259 258 257 256 256 256 256 256 257 257 257 257 257 258 259 259 259 259 259 259 259 259 260 260 261 261 261 262 262 262 262 263 264 264 264 264 264 263 263 263 262 262 262 263 264 264 264
255 254 254 255 254 253 253 254 262 263 263 258 261 262 259 257 256 256 257 257 257 257 257 257 257 257 257 257 258 260 264 264 262 261 261 261 261 261 261 261 264 267 267 264 263 263 263 263 264 268 265 265 265 264 264 264 264 264 263 262 261 260 263
255 255 254 254 254 253 253 253 258 262 263 261 261 260 258 257 257 257 257 257 257 257 257 257 257 258 258 259 259 261 265 266 264 262 262 262 262 262 263 263 264 269 270 270 270 270 271 271 271 272 273 273 273 269 266 264 262 261 262 261 260 260 261
254 254 254 254 253 253 253 253 257 262 263 261 260 259 257 257 256 256 256 256 257 257 257 258 261 261 260 260 259 264 266 267 264 262 262 262 262 262 262 263 265 265 266 271 271 272 272 272 273 272 272 272 272 273 272 266 262 263 263 261 261 260 261
254 254 254 254 253 255 254 253 255 261 262 262 257 259 257 257 257 256 256 257 257 258 258 258 260 261 261 261 262 265 266 267 265 262 262 262 262 262 261 263 264 264 264 264 264 265 266 266 269 268 268 269 271 272 272 269 268 266 264 262 262 262 262
253 253 253 253 253 253 253 252 253 254 261 262 258 261 258 258 257 256 257 258 258 258 258 258 257 259 260 263 264 265 266 267 268 264 263 263 262 261 261 263 264 264 263 262 262 263 264 264 266 266 267 267 268 268 269 269 269 268 267 264 263 263 262
253 253 252 253 253 253 253 253 252 254 261 262 260 261 259 257 256 257 257 257 258 258 257 256 256 256 258 261 263 264 266 266 267 267 264 263 261 262 264 265 261 260 261 260 260 261 261 262 263 264 265 266 267 267 267 267 268 269 269 267 265 264 263
252 252 252 252 252 252 252 253 254 253 258 262 259 257 261 258 257 258 258 258 257 257 256 255 255 255 257 259 263 264 263 264 266 267 262 262 265 266 266 261 260 258 258 258 259 260 262 263 264 264 265 265 265 265 266 266 266 267 268 269 268 267 265
251 251 251 251 252 252 252 252 253 255 254 258 262 261 260 260 257 262 259 257 256 255 254 255 255 256 258 259 264 262 262 265 265 264 261 265 266 266 263 260 257 257 256 256 257 257 258 260 262 263 263 264 264 265 265 265 266 266 266 267 268 269 269
251 251 250 250 251 251 252 252 252 254 255 255 259 262 261 260 260 261 258 258 255 254 254 254 255 256 262 263 261 263 264 265 262 260 264 264 263 260 260 257 256 255 255 255 255 256 256 258 261 263 264 265 265 265 266 266 266 266 266 265 266 267 268
251 251 251 251 250 251 251 252 252 252 254 256 256 261 263 262 260 260 259 256 255 255 255 257 262 261 263 264 264 264 263 260 259 260 260 259 259 259 256 255 255 254 254 254 254 255 256 257 259 261 263 266 267 267 267 266 266 266 265 265 265 265 266
251 251 251 250 251 251 251 252 251 252 252 254 255 256 259 261 258 257 257 257 256 258 258 259 260 259 260 260 259 257 256 256 256 258 258 257 257 255 255 254 254 254 253 253 254 255 255 257 259 261 264 265 265 266 266 266 265 265 264 264 264 263 264
251 251 251 250 251 251 251 251 251 252 252 252 252 252 253 254 254 256 256 256 255 256 256 256 258 258 258 257 257 256 257 256 256 255 255 254 254 254 254 254 254 254 254 254 254 255 255 257 258 259 260 261 262 263 266 267 266 265 264 264 264 263 263
251 251 251 251 251 251 252 252 252 252 252 252 252 253 253 253 254 254 254 255 255 256 257 257 256 254 252 252 252 252 252 252 252 253 253 253 253 254 254 255 256 256 255 254 254 254 255 256 257 257 258 260 261 262 264 267 267 266 265 265 264 263 262
253 253 253 253 253 253 253 253 252 253 256 256 258 257 257 256 256 256 256 257 259 259 255 252 250 249 250 249 250 250 250 250 250 251 252 252 253 253 253 253 253 253 253 253 253 253 253 254 256 257 259 260 260 262 264 267 267 267 265 265 265 263 263
258 258 258 256 255 254 253 253 256 259 262 261 258 258 258 257 258 259 258 259 259 256 249 247 245 246 246 248 248 248 249 249 249 250 250 251 253 252 252 252 253 252 252 253 253 253 253 255 256 256 257 258 259 261 264 268 268 266 266 265 264 264 264
264 263 261 260 258 259 260 260 259 258 261 261 259 258 257 258 258 257 258 259 256 250 246 245 245 246 246 247 247 248 248 249 249 249 249 250 251 251 252 252 252 252 252 252 252 253 254 255 255 255 256 257 258 260 262 266 267 267 266 265 265 265 265
263 263 263 261 259 258 257 258 258 258 261 258 256 258 256 256 256 259 259 256 255 248 246 244 244 245 245 246 247 248 248 248 248 249 249 249 250 250 251 251 251 252 252 252 252 253 253 253 254 254 256 256 257 259 260 264 265 266 266 266 266 266 266
262 262 262 262 261 262 261 259 258 258 261 260 258 257 256 258 257 256 256 254 248 243 245 244 244 244 245 245 246 246 247 247 248 248 249 249 249 249 250 251 251 252 251 252 252 252 252 252 253 254 255 255 256 257 257 260 263 264 265 266 266 266 266
258 258 257 258 259 260 260 260 259 259 259 259 260 259 259 255 253 257 256 251 245 244 244 244 244 245 245 245 246 246 247 247 247 248 248 249 249 249 250 250 251 251 251 252 252 251 252 252 252 253 253 253 254 255 257 258 261 262 261 261 264 265 265
251 254 255 254 254 255 255 255 255 255 255 255 255 256 258 255 247 245 245 245 243 245 243 244 245 245 245 245 245 246 247 247 247 247 248 248 249 249 249 250 250 250 251 251 251 251 251 251 251 251 252 253 253 253 254 256 258 260 263 263 262 263 263
250 251 253 254 254 254 254 254 254 254 254 257 260 259 254 247 245 244 244 244 244 243 245 245 245 245 245 245 245 246 246 246 246 247 247 248 249 249 249 249 249 250 250 251 251 251 251 251 250 251 251 251 252 253 254 255 256 259 261 264 264 264 263
Wind_Speed
6 5 5 6 7 7 7 7 7 6 7 7 8 8 9 9 9 10 9 9 10 8 9 9 10 10 10 9 10 9 9 9 10 10 9 8 8 8 8 9 11 13 17 13 5 10 11 11 10 10 8 12 10 9 9 14 15 16 12 12 11 11 18
4 5 7 8 7 7 7 7 8 8 7 9 9 10 7 8 8 9 10 8 10 9 7 8 10 11 11 10 10 11 10 9 9 9 9 9 9 10 10 9 11 12 12 16 11 10 12 13 12 15 11 11 13 10 8 10 11 12 13 11 9 9 9
6 8 8 7 6 7 7 7 8 7 8 9 10 11 10 9 10 10 10 10 10 10 10 10 11 11 10 9 10 10 10 9 9 8 9 11 10 10 11 10 10 11 13 15 15 10 11 8 8 11 12 12 12 12 11 11 9 8 10 10 11 11 9
7 7 5 6 7 7 7 8 8 9 9 10 11 11 12 11 11 11 11 12 12 11 11 11 11 10 10 9 10 10 9 8 7 8 9 10 9 9 11 12 14 15 15 16 16 14 11 10 8 10 9 9 9 12 10 10 10 10 9 11 11 13 14
5 5 6 7 8 9 8 9 9 10 10 10 10 11 12 12 11 11 11 11 11 11 11 11 11 11 9 8 10 11 9 9 9 9 9 9 10 11 12 12 12 13 13 15 17 17 13 12 10 10 11 8 10 10 10 9 9 9 10 11 11 11 12
4 5 7 8 8 9 9 9 9 10 11 11 11 11 12 12 12 12 11 11 11 11 10 11 11 11 10 10 11 11 10 10 12 11 11 11 11 12 12 13 14 15 15 15 16 16 16 12 13 12 10 9 10 11 12 10 9 9 9 9 9 9 9
6 6 7 9 9 9 10 10 9 10 11 11 11 11 12 12 12 12 11 11 11 11 11 11 11 11 11 11 11 12 12 12 13 12 13 12 12 12 11 12 12 14 15 16 16 16 16 16 13 13 15 10 8 11 10 12 9 9 7 8 9 10 9
7 8 8 9 9 9 9 10 10 11 11 11 11 12 12 12 13 12 12 12 12 12 12 12 12 12 12 13 13 12 13 13 13 13 14 14 12 12 12 12 12 12 13 15 15 15 16 14 14 12 12 11 8 10 11 11 12 13 11 7 8 9 10
8 9 10 10 10 10 9 9 10 9 10 11 14 13 13 14 13 13 13 13 13 13 13 13 12 13 12 14 18 22 21 20 18 14 14 15 12 13 11 12 12 11 11 12 11 14 14 14 15 13 12 11 8 10 13 10 8 9 10 9 9 8 8
8 8 9 9 10 9 9 9 9 13 24 24 17 14 12 12 12 12 12 13 13 13 12 12 12 12 19 22 25 26 28 29 31 31 22 17 13 13 13 13 13 13 12 12 13 13 13 14 13 12 12 11 11 9 9 9 9 11 11 8 10 10 8
9 9 9 10 10 10 9 9 10 22 28 21 23 20 15 13 12 12 12 12 12 12 12 11 12 11 15 19 21 21 28 29 31 31 32 34 33 27 18 13 13 15 13 11 11 12 12 12 13 14 12 11 12 10 11 10 10 11 10 8 9 12 8
9 9 10 9 10 10 10 10 16 28 23 28 29 22 17 13 12 10 10 10 10 9 9 10 10 10 10 11 13 14 14 19 25 27 28 30 30 31 34 33 22 16 14 14 13 13 14 13 14 15 12 11 11 12 12 11 11 11 11 10 10 11 11
10 10 10 10 11 11 10 10 21 26 24 26 31 25 22 13 11 11 10 10 10 10 10 10 10 11 10 10 19 18 15 15 17 23 29 31 32 31 33 32 34 32 22 15 14 14 16 16 15 15 14 14 14 12 12 12 11 11 11 11 12 13 11
10 11 10 10 11 10 10 11 17 26 23 20 23 28 26 14 11 10 9 10 10 10 10 10 11 11 11 11 11 11 14 14 15 16 16 16 16 15 21 27 32 33 35 29 19 16 16 17 16 17 17 16 15 13 14 13 13 12 12 13 15 15 13
9 10 10 10 10 10 11 11 23 27 26 20 22 30 24 12 11 10 10 10 9 10 11 11 11 12 12 12 12 11 14 15 16 16 15 16 16 16 16 16 17 18 17 18 17 18 20 21 19 19 20 19 17 18 18 16 16 16 15 14 13 12 13
7 10 11 10 10 10 11 12 23 27 26 22 24 29 16 10 10 11 11 10 9 10 10 10 11 11 12 12 13 15 26 25 19 17 18 18 17 17 17 17 21 28 28 23 20 18 20 19 22 27 22 21 19 17 17 16 16 14 13 14 13 14 13
9 9 10 11 10 11 12 11 18 26 28 22 25 24 13 11 9 10 10 11 10 10 11 11 11 11 12 13 13 18 28 30 29 18 18 19 20 18 17 15 16 26 33 34 34 35 37 37 38 39 40 40 41 29 21 16 14 15 15 14 14 15 13
9 9 9 10 11 11 11 12 17 26 27 24 20 18 13 10 9 10 11 11 10 9 9 11 20 19 14 14 13 22 30 33 27 18 18 17 19 21 19 17 15 13 15 27 30 32 32 32 32 34 37 40 38 37 31 17 17 17 14 15 15 15 14
9 10 9 9 10 14 15 13 15 23 26 29 22 21 14 11 9 10 10 10 10 9 9 9 12 18 17 15 20 31 30 32 27 18 16 15 16 18 19 15 12 12 14 14 14 14 16 17 22 20 17 17 30 34 32 22 20 15 14 15 15 15 13
9 11 11 9 10 10 11 12 12 13 26 27 21 30 19 11 9 10 11 10 9 10 8 6 5 9 17 25 26 28 31 31 33 23 15 14 14 13 13 9 11 10 10 12 12 13 13 15 15 17 15 14 16 18 20 21 19 17 15 16 16 15 14
10 10 11 10 10 10 10 10 12 14 23 26 21 30 21 10 10 10 11 11 11 7 7 7 8 8 14 23 27 28 32 32 31 28 18 11 7 10 16 16 8 12 16 12 13 13 13 14 14 14 15 14 13 14 15 16 18 17 16 15 15 14 14
10 10 11 10 9 9 11 10 15 12 18 24 24 20 29 17 11 13 12 11 8 8 6 7 9 9 14 23 28 30 27 29 30 29 13 12 23 25 24 16 11 9 9 9 10 10 11 12 12 11 12 12 12 13 14 14 14 14 14 14 13 14 14
10 10 10 10 9 8 9 10 10 16 14 20 25 23 24 27 20 27 16 9 9 9 9 8 10 11 20 27 29 26 27 26 27 23 17 28 27 26 28 19 8 11 11 11 12 13 14 14 13 13 12 11 11 11 11 11 12 13 13 12 11 12 13
8 8 9 10 10 9 8 8 8 11 18 17 23 26 25 21 26 24 12 11 9 9 10 10 11 14 27 26 24 27 26 28 27 19 26 25 26 24 20 10 10 10 10 13 13 13 13 13 13 12 11 10 10 10 10 11 12 12 13 12 11 13 14
8 9 9 9 10 10 9 9 8 8 12 20 22 25 26 25 23 26 26 16 11 11 11 16 26 22 29 28 28 26 26 21 20 22 22 22 22 19 9 9 9 9 9 11 12 13 13 14 13 13 13 13 11 11 10 9 10 12 11 11 11 11 11
8 9 9 10 10 11 11 9 8 9 9 10 14 16 22 26 26 24 25 23 18 23 28 30 29 30 28 19 15 13 10 10 11 19 20 19 17 9 8 8 8 9 10 10 11 12 13 13 12 12 12 14 14 12 11 10 10 9 9 9 9 9 10
9 9 10 10 11 11 11 10 9 8 8 8 9 10 11 12 12 16 19 15 12 14 14 17 19 11 11 12 17 17 16 15 15 11 10 8 7 7 8 8 8 9 10 11 11 12 12 13 13 14 14 12 11 12 12 11 11 10 11 10 9 10 10
10 10 11 11 11 10 10 10 8 8 8 8 9 9 9 10 9 9 8 10 11 12 14 8 5 7 5 6 7 7 5 6 6 8 9 8 7 8 8 11 16 15 9 9 10 11 12 13 13 13 12 12 11 12 14 12 10 11 11 10 8 6 8
11 11 12 11 11 10 10 8 8 7 9 11 13 12 10 8 8 8 8 10 17 14 3 5 6 6 7 5 7 7 7 7 7 7 8 9 8 7 8 8 7 8 8 9 10 11 12 12 12 12 12 12 13 13 13 11 10 12 11 9 8 9 10
14 12 9 8 8 9 9 7 7 16 23 24 20 22 20 18 20 19 16 18 19 7 3 4 4 5 5 6 5 7 7 8 7 8 8 7 10 9 8 8 8 8 9 10 11 11 12 12 12 12 12 11 12 13 13 10 11 10 10 8 9 10 11
26 27 22 16 11 9 18 19 19 21 23 23 18 18 21 21 21 18 16 16 10 4 4 4 5 5 5 5 6 6 7 7 7 8 8 8 8 7 9 10 9 10 10 11 11 12 11 11 11 12 12 12 12 12 13 9 7 7 7 9 10 10 9
25 25 24 23 19 14 9 14 20 22 23 17 16 20 18 18 14 16 20 19 14 7 6 5 6 5 5 6 6 7 7 7 7 8 8 9 8 8 8 10 10 11 11 11 10 10 11 11 11 12 12 12 12 13 12 10 5 6 7 8 8 9 10
22 22 22 22 22 22 19 19 19 22 22 21 19 17 20 18 14 17 17 15 8 6 7 7 6 6 5 5 6 7 7 7 7 7 8 7 9 10 9 9 11 13 11 10 10 10 11 11 11 12 13 13 12 11 12 12 7 5 6 7 8 8 10
16 17 19 19 20 20 20 21 22 22 22 22 22 23 25 12 11 17 18 12 6 6 6 6 7 6 6 6 6 6 7 7 7 7 8 8 8 8 9 10 9 9 10 9 9 9 10 11 11 12 12 12 12 11 10 10 11 7 4 5 6 7 8
11 10 13 13 13 16 19 19 20 20 20 21 21 23 15 16 11 11 10 8 4 5 5 6 6 7 7 7 7 7 7 8 8 8 8 9 9 8 8 9 10 10 10 8 8 9 9 10 11 11 11 11 12 12 11 11 10 11 9 6 5 5 6
10 9 8 15 16 17 16 17 18 18 20 21 21 20 14 9 8 8 6 7 5 5 6 5 5 6 7 6 7 7 7 7 8 8 8 8 8 9 10 10 9 10 9 10 9 9 11 11 10 10 11 10 10 10 11 10 10 10 11 10 7 6 6
Wind_Direction
294 295 298 298 298 297 296 299 301 301 299 294 292 290 288 288 285 284 284 282 281 278 279 279 278 279 279 283 282 280 280 280 280 281 279 276 273 268 262 263 267 271 279 280 262 276 283 286 288 287 289 290 291 288 291 293 296 297 297 297 290 291 290
283 289 289 286 286 290 293 296 298 298 298 295 292 290 285 283 281 277 277 275 277 275 271 276 280 280 281 282 279 280 278 277 279 278 279 276 275 273 270 258 268 272 276 284 283 273 278 281 285 284 281 283 290 286 284 281 282 283 291 289 296 297 298
286 290 286 283 286 289 290 292 293 294 292 291 291 290 289 284 285 284 283 280 277 279 279 278 277 279 281 280 280 278 277 276 274 274 273 273 271 273 274 272 267 273 273 277 279 273 273 267 274 271 282 278 277 276 274 276 276 288 288 290 299 295 292
289 286 284 287 289 289 292 293 292 291 288 288 289 287 286 286 282 280 280 279 280 281 280 278 278 277 278 279 277 277 275 270 266 264 263 264 262 261 268 270 272 268 272 276 280 277 270 275 269 268 264 272 276 280 285 277 276 270 274 286 289 294 294
280 288 296 296 295 295 293 293 293 291 288 285 283 284 284 283 282 278 278 278 278 279 278 276 274 276 276 275 274 275 273 272 268 264 264 263 265 267 269 272 268 268 267 269 272 278 277 277 267 264 267 264 273 274 268 267 270 271 270 267 264 268 274
292 293 293 293 293 293 293 292 290 288 288 287 285 284 282 280 278 278 277 277 276 274 272 271 272 271 268 267 265 266 268 269 270 270 267 264 263 263 266 266 266 267 269 271 273 276 282 276 279 279 272 263 264 272 275 272 264 263 263 268 271 265 270
293 292 292 292 293 292 291 291 289 286 284 282 281 279 278 277 277 277 276 273 273 271 269 268 268 267 263 260 258 262 264 267 267 265 262 258 258 258 257 256 258 261 264 265 267 271 271 277 274 272 277 267 257 266 267 275 278 269 253 255 258 266 258
289 291 290 291 290 290 289 286 285 284 281 280 278 276 273 273 274 274 272 270 269 268 266 265 264 261 260 256 257 257 259 256 261 259 261 258 256 255 252 253 256 259 260 261 263 265 271 270 274 272 266 270 257 260 258 249 261 267 269 256 250 248 260
292 294 293 287 286 287 286 284 281 278 278 278 275 267 267 267 265 264 266 267 265 263 262 260 258 257 255 252 252 252 251 249 247 251 256 258 252 253 251 253 256 255 256 255 256 260 262 268 269 265 266 267 249 244 254 260 252 259 259 262 266 256 245
289 287 285 285 283 282 280 278 276 274 277 277 270 267 266 265 261 263 266 270 270 269 266 261 259 257 253 255 257 257 257 258 257 256 254 254 251 249 251 251 251 251 249 252 255 254 260 264 260 260 258 254 252 253 266 270 262 263 265 262 260 262 251
285 280 278 279 281 279 276 274 272 277 282 278 282 284 280 275 272 270 270 268 269 272 271 267 263 262 264 269 272 272 271 271 269 267 265 264 263 261 256 246 241 242 236 235 237 244 248 247 254 254 244 245 257 255 252 251 254 259 264 257 261 266 260
276 275 275 275 275 275 274 273 275 282 284 287 286 285 281 279 284 283 276 274 272 270 266 268 267 264 264 262 261 264 265 268 273 274 274 273 271 270 266 261 253 246 243 238 239 243 241 242 246 252 248 250 250 251 251 250 253 253 254 255 253 258 261
276 274 274 274 276 276 275 272 281 285 286 285 287 288 291 291 291 290 286 283 278 274 274 274 275 276 269 267 273 276 273 272 273 272 271 271 272 271 270 272 272 268 259 247 242 238 243 239 244 250 249 240 241 241 248 247 242 240 245 248 253 254 258
271 273 272 272 273 275 275 273 277 283 284 283 287 291 291 294 294 290 289 287 280 275 274 271 272 275 274 270 268 266 268 267 266 266 265 264 262 260 261 263 264 267 269 268 262 256 250 248 239 245 249 245 237 238 239 240 241 237 242 245 244 249 253
274 273 274 274 273 273 275 271 281 286 288 289 292 294 299 304 303 299 287 280 272 269 268 267 267 268 270 273 270 265 267 265 263 262 261 260 259 255 255 253 252 252 251 252 250 246 251 254 250 246 246 248 243 236 241 238 239 238 239 246 253 257 251
265 273 274 274 275 275 276 277 284 289 292 292 292 295 301 303 297 290 284 277 273 270 269 269 269 269 271 269 270 268 278 277 273 267 266 265 260 257 254 251 250 252 248 243 238 238 240 242 243 244 243 242 240 238 240 240 240 242 244 246 247 248 247
273 273 275 277 275 276 277 278 284 289 292 292 295 301 298 294 291 287 286 279 272 269 268 268 266 265 267 270 267 274 281 281 279 276 272 271 270 267 265 262 260 260 260 258 253 248 244 241 242 244 245 245 243 237 230 230 233 232 230 234 240 244 245
276 273 271 273 274 273 277 277 284 290 294 296 296 297 298 300 286 278 278 274 266 262 262 259 268 280 281 281 280 283 282 282 285 281 277 274 277 278 277 276 273 275 272 276 281 284 278 274 266 256 253 251 249 247 241 226 228 227 222 227 228 237 236
275 274 272 268 270 276 277 279 284 290 294 295 294 297 295 292 285 281 275 275 273 266 262 265 268 277 285 287 286 287 288 291 291 285 278 278 279 281 280 281 289 284 279 278 278 277 280 279 278 276 273 268 265 262 260 250 240 230 220 226 227 230 236
273 274 274 274 272 272 273 277 279 282 289 294 295 299 299 293 289 288 286 280 280 279 270 264 278 286 289 291 292 293 292 291 288 287 291 291 289 293 299 298 284 291 309 309 302 293 286 281 278 277 270 263 257 256 255 253 246 238 225 222 226 223 222
273 274 274 274 270 270 272 269 276 280 287 294 295 297 299 295 288 289 291 286 284 289 301 295 284 282 285 289 290 289 287 285 289 294 299 307 308 293 289 310 325 312 305 289 284 279 278 278 275 270 266 259 255 250 247 245 243 237 231 224 222 222 221
274 274 276 275 272 268 270 267 267 274 280 289 295 296 301 302 290 291 289 295 297 297 293 286 288 282 285 287 287 286 287 292 297 312 332 312 309 313 329 339 320 315 309 298 297 289 279 273 262 260 263 263 261 255 249 240 240 239 234 229 225 220 220
274 275 276 277 274 270 266 266 265 270 274 282 291 295 297 298 300 303 307 305 304 303 294 289 286 283 285 284 287 289 292 302 323 333 321 318 321 328 329 328 331 322 317 308 300 293 285 281 279 275 269 261 257 249 241 239 235 239 237 235 233 228 227
274 273 275 279 281 273 268 264 262 267 272 276 283 290 291 293 297 300 304 311 309 296 289 291 289 283 284 288 296 303 316 324 326 317 316 321 324 322 322 327 322 313 306 300 291 286 283 280 278 277 274 267 258 252 237 233 234 236 236 232 230 231 231
274 274 275 277 278 278 276 269 262 262 264 271 275 283 289 293 298 307 310 305 298 291 286 286 288 289 301 307 309 313 318 318 312 313 315 318 319 321 323 317 308 303 294 291 290 287 285 282 282 283 283 284 277 266 253 238 234 231 231 228 225 229 232
274 274 274 274 273 276 275 272 268 265 265 263 268 268 276 284 291 293 293 291 287 288 289 289 290 292 294 301 314 316 310 304 312 313 316 317 318 315 307 301 300 295 295 288 291 288 285 284 284 283 293 299 297 287 265 246 239 233 229 221 220 223 227
270 272 273 270 270 272 275 273 268 266 263 261 261 259 262 269 270 273 278 281 277 278 279 276 277 293 318 323 315 315 312 310 313 313 312 311 307 302 303 298 294 295 297 299 297 298 295 296 296 296 290 284 284 277 269 248 236 227 229 214 213 212 225
267 264 266 267 268 270 272 273 268 268 262 256 255 260 262 254 255 257 252 270 275 267 269 283 341 333 334 322 319 310 308 304 303 308 310 306 305 299 297 306 305 301 294 294 296 293 295 290 290 286 284 283 279 274 270 259 232 224 226 215 202 194 215
265 261 256 260 267 271 271 275 272 245 249 266 282 291 292 292 288 286 273 276 290 293 4 8 336 346 330 331 316 314 312 312 311 310 310 307 305 305 306 300 294 304 304 305 306 303 300 294 289 288 291 291 283 278 274 255 228 216 218 210 195 203 215
283 279 273 265 243 221 236 243 265 305 311 312 312 313 313 314 314 320 320 314 320 16 7 356 339 312 318 314 317 313 314 315 316 314 312 310 315 313 306 307 312 310 307 311 310 304 300 298 301 300 298 293 289 290 291 262 212 213 205 202 202 211 218
293 299 304 306 310 307 305 306 314 320 313 309 318 323 326 326 324 317 322 336 346 38 1 335 329 316 318 310 309 306 307 312 312 313 311 312 311 304 313 316 313 313 315 314 308 306 305 304 305 300 300 302 301 302 301 285 215 208 198 207 215 215 224
303 305 308 311 311 312 311 316 315 313 309 316 332 326 328 319 332 345 344 338 357 1 340 333 315 314 304 308 309 306 309 308 308 308 312 310 309 313 319 320 314 317 317 309 304 309 315 312 308 308 308 307 308 309 311 302 243 209 212 217 217 222 226
305 306 308 313 313 312 312 312 315 314 317 323 324 323 319 332 7 351 347 1 10 348 327 320 312 298 294 299 300 306 307 306 306 308 310 307 307 313 315 309 310 315 308 307 311 318 315 313 312 315 315 313 313 320 317 316 299 244 221 216 217 222 223
299 302 305 302 304 307 311 314 314 316 317 316 318 317 309 356 360 354 354 4 346 329 318 317 309 304 302 298 299 304 306 305 307 307 306 305 306 306 306 310 311 310 310 307 315 316 316 318 318 320 319 319 321 319 314 312 323 310 249 224 224 227 228
306 301 297 298 300 303 304 307 309 310 310 309 303 295 331 19 5 353 338 340 334 319 306 308 312 311 313 312 309 306 307 306 307 305 306 309 308 308 311 314 316 314 310 311 315 316 315 324 323 320 317 320 319 320 322 323 323 323 312 277 237 229 238
291 292 293 294 294 298 302 304 304 306 304 297 303 314 10 6 345 323 317 310 308 300 303 295 301 308 307 310 304 306 305 305 303 304 305 303 309 313 314 312 308 311 316 320 314 314 323 324 321 320 320 315 310 309 311 312 312 310 311 304 274 245 238